This demonstration page uses our WeatherBlox Daily Observations layout. Learn more.

Left ArrowRight Arrow

Hourly Observations for June 27, 2017

Temp ( °F °C ) Dew Point ( °F °C ) Humidity (%) Winds ( mph kmh ) Pressure ( in mb ) Visibility ( mi km ) Precip ( " mm )
12:15 am 00:15 Clear 60 15.5 58 14.3 93 93 ESE 8 13 30.09 1019 10 16.0934 0 0
12:35 am 00:35 Partly Cloudy 60 15.5 58 14.4 93 93 ESE 9 15 30.09 1019 10 16.0934 0 0
12:55 am 00:55 Partly Cloudy 60 15.5 58 14.3 93 93 SE 8 13 30.09 1019 10 16.0934 0 0
1:15 am 01:15 Mostly Cloudy 60 15.3 57 14.1 93 93 SE 8 13 30.09 1019 10 16.0934 0 0
1:35 am 01:35 Mostly Cloudy 59 15.2 57 14 93 93 SE 8 13 30.09 1019 10 16.0934 0 0
1:55 am 01:55 Partly Cloudy 59 15.2 57 14 93 93 SE 8 13 30.09 1019 10 16.0934 0 0
2:15 am 02:15 Partly Cloudy 59 15 57 14 94 94 SE 8 13 30.09 1019 10 16.0934 0 0
2:35 am 02:35 Partly Cloudy 59 14.8 57 13.9 94 94 SE 8 13 30.09 1019 7 11.26538 0 0
2:55 am 02:55 Mostly Cloudy with Mist and Fog 59 14.8 57 14 95 95 SE 10 17 30.09 1019 5 8.0467 0 0
3:15 am 03:15 Cloudy with Mist and Fog 59 15 58 14.2 95 95 SE 9 15 30.06 1018 4 6.43736 0 0
3:35 am 03:35 Cloudy with Mist and Fog 58 14.6 57 14 96 96 SE 12 19 30.06 1018 5 8.0467 0 0
3:55 am 03:55 Cloudy with Mist and Fog 58 14.5 57 13.7 95 95 SE 10 17 30.06 1018 5 8.0467 0 0
4:15 am 04:15 Mostly Cloudy with Mist and Fog 58 14.5 57 13.7 95 95 SE 12 19 30.06 1018 5 8.0467 0 0
4:35 am 04:35 Partly Cloudy 58 14.2 56 13.4 95 95 ESE 9 15 30.06 1018 7 11.26538 0 0
4:55 am 04:55 Clear 57 14 56 13.2 95 95 ESE 10 17 30.03 1017 7 11.26538 0 0
5:15 am 05:15 Mostly Cloudy with Mist and Fog 57 14 56 13.2 95 95 SE 9 15 30.03 1017 5 8.0467 0 0
5:35 am 05:35 Mostly Cloudy with Mist and Fog 57 14 56 13.1 94 94 ESE 9 15 30.03 1017 5 8.0467 0 0
5:55 am 05:55 Partly Cloudy 57 14 56 13.1 94 94 SE 8 13 30.03 1017 7 11.26538 0 0
6:15 am 06:15 Mostly Cloudy 58 14.2 56 13.3 94 94 SE 10 17 30.03 1017 10 16.0934 0 0
6:35 am 06:35 Cloudy 58 14.5 56 13.3 93 93 SE 9 15 30.03 1017 10 16.0934 0 0
6:55 am 06:55 Partly Cloudy 58 14.5 56 13.2 92 92 SE 10 17 30.03 1017 10 16.0934 0 0
7:15 am 07:15 Sunny 58 14.7 56 13.2 91 91 SE 12 19 30 1016 10 16.0934 0 0
7:35 am 07:35 Sunny 60 15.5 56 13.5 88 88 SE 14 22 30 1016 10 16.0934 0 0
7:55 am 07:55 Sunny 61 15.9 56 13.4 85 85 SE 15 24 30 1016 10 16.0934 0 0
8:15 am 08:15 Sunny 62 16.5 56 13.5 83 83 SE 15 24 29.97 1015 10 16.0934 0 0
8:35 am 08:35 Sunny 63 17.2 56 13.1 77 77 SE 16 26 29.97 1015 10 16.0934 0 0
8:55 am 08:55 Sunny 64 18 55 13 73 73 SSE 16 26 29.94 1014 10 16.0934 0 0
9:15 am 09:15 Sunny 66 18.8 56 13.5 71 71 SE 20 31 29.94 1014 10 16.0934 0 0
9:35 am 09:35 Sunny 67 19.6 57 13.8 69 69 SSE 20 31 29.91 1013 10 16.0934 0 0
9:55 am 09:55 Sunny 68 20.1 57 13.8 67 67 SSE 18 30 29.91 1013 10 16.0934 0 0
10:15 am 10:15 Sunny 70 21.1 58 14.2 65 65 SSE 18 30 29.88 1012 10 16.0934 0 0
10:35 am 10:35 Partly Cloudy 72 22.1 58 14.6 63 63 SSE 18 30 29.88 1012 10 16.0934 0 0
10:55 am 10:55 Sunny 72 22.1 59 14.8 63 63 SSE 18 30 29.88 1012 10 16.0934 0 0
11:15 am 11:15 Mostly Cloudy 73 22.5 60 15.5 65 65 SSE 20 31 29.83 1010 10 16.0934 0 0
11:35 am 11:35 Cloudy 72 22.2 60 15.7 67 67 SSE 23 37 29.85 1011 10 16.0934 0 0
11:55 am 11:55 Cloudy 72 22.2 61 15.9 68 68 SSE 20 31 29.85 1011 10 16.0934 0 0
12:15 pm 12:15 Cloudy 73 22.9 61 16.1 66 66 SSE 20 31 29.83 1010 10 16.0934 0 0
12:35 pm 12:35 Mostly Cloudy 76 24.3 62 16.8 63 63 SSE 17 28 29.8 1009 10 16.0934 0 0
12:55 pm 12:55 Mostly Cloudy 75 23.7 62 16.6 65 65 SSE 18 30 29.8 1009 10 16.0934 0 0
1:15 pm 13:15 Mostly Cloudy 76 24.3 62 16.6 62 62 SE 20 31 29.8 1009 10 16.0934 0 0
1:35 pm 13:35 Cloudy 76 24.2 62 16.6 63 63 SSE 20 31 29.77 1008 10 16.0934 0 0
1:55 pm 13:55 Mostly Cloudy 75 23.9 62 16.6 64 64 S 16 26 29.77 1008 10 16.0934 0 0
2:15 pm 14:15 Mostly Cloudy 77 25.2 63 17 60 60 SSE 20 31 29.77 1008 10 16.0934 0 0
2:35 pm 14:35 Cloudy 79 26 64 17.5 60 60 S 16 26 29.74 1007 10 16.0934 0 0
2:55 pm 14:55 Mostly Cloudy 81 27.1 64 17.5 56 56 SSE 17 28 29.68 1005 10 16.0934 0 0
3:15 pm 15:15 Partly Cloudy 83 28.1 63 17.3 52 52 SSE 22 35 29.68 1005 10 16.0934 0 0
3:35 pm 15:35 Sunny 84 28.8 63 17.4 50 50 SSE 17 28 29.62 1003 10 16.0934 0 0
3:55 pm 15:55 Sunny 86 29.8 64 17.5 48 48 SSE 21 33 29.62 1003 10 16.0934 0 0
4:15 pm 16:15 Sunny 87 30.5 64 17.7 46 46 SSE 23 37 29.62 1003 10 16.0934 0 0
4:35 pm 16:35 Sunny 88 31 64 17.8 45 45 SSE 22 35 29.62 1003 10 16.0934 0 0
4:55 pm 16:55 Sunny 88 31.3 65 18.2 46 46 SSE 18 30 29.59 1002 10 16.0934 0 0
5:15 pm 17:15 Sunny 88 31.3 64 17.6 44 44 SSE 18 30 29.59 1002 10 16.0934 0 0
5:35 pm 17:35 Sunny 90 32 58 14.4 34 34 SSE 17 28 29.56 1001 10 16.0934 0 0
5:55 pm 17:55 Sunny 89 31.7 56 13.4 33 33 SSE 16 26 29.53 1000 10 16.0934 0 0
6:15 pm 18:15 Sunny 89 31.5 55 13 32 32 SSE 17 28 29.56 1001 10 16.0934 0 0
6:35 pm 18:35 Sunny 90 32 56 13.2 32 32 SSE 16 26 29.5 999 10 16.0934 0 0
6:55 pm 18:55 Sunny 90 32 52 11.3 28 28 S 21 33 29.5 999 10 16.0934 0 0
7:35 pm 19:35 Sunny 88 31.2 54 12.2 31 31 SSE 13 20 29.53 1000 10 16.0934 0 0
7:55 pm 19:55 Sunny 87 30.7 55 12.5 33 33 S 14 22 29.53 1000 10 16.0934 0 0
8:15 pm 20:15 Sunny 85 29.7 55 12.6 35 35 SSE 10 17 29.53 1000 10 16.0934 0 0
8:55 pm 20:55 Sunny 84 29.1 55 12.6 36 36 S 13 20 29.53 1000 10 16.0934 0 0
9:15 pm 21:15 Clear 83 28.5 55 12.8 38 38 SSE 12 19 29.53 1000 10 16.0934 0 0
9:35 pm 21:35 Clear 84 28.8 58 14.7 42 42 S 20 31 29.53 1000 10 16.0934 0 0
9:55 pm 21:55 Clear 84 29.1 59 15 42 42 S 22 35 29.5 999 10 16.0934 0 0
10:15 pm 22:15 Clear 84 28.7 59 15 43 43 S 24 39 29.5 999 10 16.0934 0 0
10:35 pm 22:35 Clear 83 28.3 59 15.2 45 45 S 20 31 29.53 1000 10 16.0934 0 0
10:55 pm 22:55 Mostly Cloudy with Thunderstorms 71 21.6 58 14.6 65 65 NNW 24 39 29.68 1005 10 16.0934 0 0
11:15 pm 23:15 Cloudy with Heavy Thunderstorms 68 20.1 61 16.1 78 78 NE 10 17 29.65 1004 4 6.43736 0.06 1.524
11:35 pm 23:35 Partly Cloudy with Light Thunderstorms 71 21.5 62 16.8 75 75 E 3 6 29.65 1004 10 16.0934 0.07 1.778
11:55 pm 23:55 Clear with Nearby Thunderstorms 68 20 63 17.2 84 84 E 12 19 29.68 1005 10 16.0934 0.07 1.778

Powered by AerisWeather